[TLELIST] Archives

[TLELIST] Current TLEs

Sent April 30th 2013

HST 1 20580U 90037B 13119.75086392 .00001871 00000-0 12167-3 0 2292 2 20580 028.4694 230.3343 0002971 189.3269 298.7600 15.03517938 62401 ISS (ZARYA) 1 25544U 98067A 13120.18514905 .00008847 00000-0 15346-3 0 7133 2 25544 051.6501 346.4350 0008494 216.2040 239.8143 15.51667912827252 CXO 1 25867U 99040B 13122.95315658 -.00000399 00000-0 00000+0 0 8957 2 25867 075.1486 342.2885 8602733 277.6865 359.4616 00.37803301 10362 ____________________________________________________________________ These 2-Line ...

[TLELIST] Current TLEs

Sent April 29th 2013

HST 1 20580U 90037B 13118.69013220 .00001725 00000-0 11123-3 0 2282 2 20580 028.4695 237.2865 0003007 177.3274 318.0630 15.03513919 62247 ISS (ZARYA) 1 25544U 98067A 13119.47060878 .00021837 00000-0 36702-3 0 7074 2 25544 051.6482 349.9810 0007708 216.9333 205.0433 15.51660290827145 CXO 1 25867U 99040B 13120.30670723 -.00000270 00000-0 00000+0 0 8948 2 25867 075.1311 342.4530 8605740 277.6779 359.3318 00.37800441 10352 ____________________________________________________________________ These 2-Line ...

[TLELIST] Current TLEs

Sent April 28th 2013

HST 1 20580U 90037B 13117.48526788 .00001598 00000-0 10212-3 0 2271 2 20580 028.4695 245.1832 0003095 164.4423 276.5943 15.03509451 62059 ISS (ZARYA) 1 25544U 98067A 13118.43042824 .00012914 00000-0 21329-3 0 7019 2 25544 051.6480 355.1423 0009921 191.6824 176.1345 15.52570680826980 CXO 1 25867U 99040B 13120.30670723 -.00000270 00000-0 00000+0 0 8948 2 25867 075.1311 342.4530 8605740 277.6779 359.3318 00.37800441 10352 ____________________________________________________________________ These 2-Line ...

[TLELIST] Current TLEs

Sent April 27th 2013

HST 1 20580U 90037B 13115.83451446 .00001709 00000-0 11011-3 0 2267 2 20580 028.4694 256.0016 0003189 147.0315 341.4820 15.03504456 61813 ISS (ZARYA) 1 25544U 98067A 13117.39512731 .00012213 00000-0 20236-3 0 6929 2 25544 051.6476 000.2910 0010015 188.0172 149.4568 15.52540414826810 CXO 1 25867U 99040B 13117.66263783 -.00000300 00000-0 00000+0 0 8930 2 25867 075.1160 342.6151 8608083 277.6656 359.5579 00.37803143 10344 ____________________________________________________________________ These 2-Line ...

[TLELIST] Current TLEs

Sent April 26th 2013

HST 1 20580U 90037B 13115.83451446 .00001709 00000-0 11011-3 0 2267 2 20580 028.4694 256.0016 0003189 147.0315 341.4820 15.03504456 61813 ISS (ZARYA) 1 25544U 98067A 13116.42997685 .00011166 00000-0 18587-3 0 6840 2 25544 051.6479 005.0899 0010065 184.2385 155.3313 15.52511898826662 CXO 1 25867U 99040B 13117.66263783 -.00000300 00000-0 00000+0 0 8930 2 25867 075.1160 342.6151 8608083 277.6656 359.5579 00.37803143 10344 ____________________________________________________________________ These 2-Line ...

[TLELIST] Current TLEs

Sent April 25th 2013

HST 1 20580U 90037B 13114.77321830 .00001722 00000-0 11104-3 0 2259 2 20580 028.4694 262.9569 0003232 134.3085 358.5015 15.03501685 61652 ISS (ZARYA) 1 25544U 98067A 13115.29350438 .00010518 00000-0 17571-3 0 6777 2 25544 051.6476 010.7421 0010121 179.8328 283.7875 15.52482890826492 CXO 1 25867U 99040B 13117.66263783 -.00000300 00000-0 00000+0 0 8930 2 25867 075.1160 342.6151 8608083 277.6656 359.5579 00.37803143 10344 ____________________________________________________________________ These 2-Line ...

[TLELIST] Current TLEs

Sent April 24th 2013

HST 1 20580U 90037B 13111.91811670 .00002183 00000-0 14408-3 0 2238 2 20580 028.4696 281.6689 0003341 105.0646 023.8043 15.03491761 61223 ISS (ZARYA) 1 25544U 98067A 13112.58240406 .00011767 00000-0 19604-3 0 6584 2 25544 051.6477 024.2239 0010095 169.9254 251.7930 15.52428443826073 CXO 1 25867U 99040B 13115.01815904 -.00000219 00000-0 00000+0 0 8923 2 25867 075.0960 342.8160 8608436 277.6483 359.7125 00.37805993 10336 ____________________________________________________________________ These 2-Line ...

[TLELIST] Current TLEs

Sent April 23rd 2013

HST 1 20580U 90037B 13111.91811670 .00002183 00000-0 14408-3 0 2238 2 20580 028.4696 281.6689 0003341 105.0646 023.8043 15.03491761 61223 ISS (ZARYA) 1 25544U 98067A 13112.58240406 .00011767 00000-0 19604-3 0 6584 2 25544 051.6477 024.2239 0010095 169.9254 251.7930 15.52428443826073 CXO 1 25867U 99040B 13115.01815904 -.00000219 00000-0 00000+0 0 8923 2 25867 075.0960 342.8160 8608436 277.6483 359.7125 00.37805993 10336 ____________________________________________________________________ These 2-Line ...

[TLELIST] Current TLEs

Sent April 22nd 2013

HST 1 20580U 90037B 13111.91811670 .00002183 00000-0 14408-3 0 2238 2 20580 028.4696 281.6689 0003341 105.0646 023.8043 15.03491761 61223 ISS (ZARYA) 1 25544U 98067A 13112.09371528 .00009160 00000-0 15438-3 0 6563 2 25544 051.6474 026.6488 0010360 167.6629 041.1130 15.52418033825995 CXO 1 25867U 99040B 13115.01815904 -.00000219 00000-0 00000+0 0 8923 2 25867 075.0960 342.8160 8608436 277.6483 359.7125 00.37805993 10336 ____________________________________________________________________ These 2-Line ...

[TLELIST] Current TLEs

Sent April 21st 2013

HST 1 20580U 90037B 13110.84884119 .00001681 00000-0 10812-3 0 2223 2 20580 028.4699 288.6774 0003362 094.7912 355.1420 15.03488825 61059 ISS (ZARYA) 1 25544U 98067A 13111.47289352 .00007994 00000-0 13583-3 0 6514 2 25544 051.6491 029.7352 0009685 160.1726 176.7221 15.52401716825897 CXO 1 25867U 99040B 13112.37516776 -.00000027 00000-0 00000+0 0 8910 2 25867 075.0752 343.0085 8606986 277.6553 359.9664 00.37802598 10327 ____________________________________________________________________ These 2-Line ...

< < Previous

Index

Next >>

(archive rss , atom rss/atom )

this list's archives:


International Space Station (ISS) / Hubble Space Telescope (HST) / Chandra X-Ray Observatory Orbital Data via EMAIL
Subscribe/Unsubscribe on [TLELIST]

* Required